SAS330 ENBR-EGNT

Flight info

Callsign SAS330
Flight time N/A
Altitude 31000
Route ENBR UNPUT BR521 EPOTU ASGEB SUPIG NT25F EGNT
Aircraft A346/H-VGDW/C

Departure

Time 2026-05-06 06:49
Airport Bergen Airport, Flesland (ENBR)

Arrival

Time N/A
Airport Newcastle International Airport (EGNT)
Time Latitude Longitude Altitude Speed Heading
2026-05-06 06:47 60.29576 5.22182 160 ft 34 kts 351°
2026-05-06 06:47 60.29729 5.22040 156 ft 19 kts 311°
2026-05-06 06:47 60.29841 5.21973 159 ft 18 kts 349°
2026-05-06 06:48 60.29998 5.21917 165 ft 27 kts 350°
2026-05-06 06:48 60.30211 5.21844 173 ft 35 kts 350°
2026-05-06 06:48 60.30460 5.21758 183 ft 35 kts 350°
2026-05-06 06:48 60.30649 5.21609 189 ft 27 kts 279°
2026-05-06 06:49 60.30509 5.21429 182 ft 58 kts 173°
2026-05-06 06:49 60.29793 5.21665 164 ft 147 kts 171°
2026-05-06 06:49 60.28563 5.22076 369 ft 198 kts 170°
2026-05-06 06:49 60.27218 5.22556 1546 ft 197 kts 172°
2026-05-06 06:50 60.25830 5.23069 2646 ft 208 kts 171°
2026-05-06 06:50 60.24375 5.23617 3771 ft 216 kts 171°
2026-05-06 06:50 60.22877 5.24176 4938 ft 221 kts 171°
2026-05-06 06:50 60.21349 5.24732 6078 ft 227 kts 173°
2026-05-06 06:51 60.19719 5.25192 6964 ft 245 kts 175°
2026-05-06 06:51 60.17978 5.25672 7951 ft 259 kts 174°
2026-05-06 06:51 60.16164 5.26216 9063 ft 269 kts 174°
2026-05-06 06:51 60.14276 5.26818 10185 ft 277 kts 173°
2026-05-06 06:52 60.12345 5.27250 11232 ft 281 kts 188°
2026-05-06 06:52 60.10522 5.26075 12300 ft 274 kts 218°
2026-05-06 06:52 60.09229 5.23410 13445 ft 264 kts 244°
2026-05-06 06:52 60.08663 5.20003 14539 ft 255 kts 263°
2026-05-06 06:53 60.08389 5.16525 15622 ft 250 kts 263°
2026-05-06 06:53 60.08110 5.13119 16717 ft 245 kts 262°
2026-05-06 06:53 60.07713 5.09819 17859 ft 240 kts 256°
2026-05-06 06:53 60.07156 5.06704 18864 ft 234 kts 253°
2026-05-06 06:54 60.06587 5.03698 19880 ft 226 kts 253°
2026-05-06 06:54 60.06034 5.00796 20919 ft 218 kts 252°
2026-05-06 06:54 60.05486 4.97919 21570 ft 225 kts 252°
2026-05-06 06:54 60.04912 4.94911 22143 ft 233 kts 252°
2026-05-06 06:55 60.04321 4.91839 22692 ft 239 kts 252°
2026-05-06 06:55 60.03716 4.88704 23285 ft 244 kts 251°
2026-05-06 06:55 60.03095 4.85494 23828 ft 249 kts 251°
2026-05-06 06:55 60.02461 4.82223 24318 ft 255 kts 251°
2026-05-06 06:56 60.01811 4.78876 24815 ft 261 kts 251°
2026-05-06 06:56 60.01145 4.75452 25317 ft 267 kts 251°
2026-05-06 06:56 60.00462 4.71955 25838 ft 272 kts 250°
2026-05-06 06:56 59.99768 4.68404 26338 ft 278 kts 250°
2026-05-06 06:57 59.99057 4.64774 26882 ft 282 kts 250°
2026-05-06 06:57 59.98333 4.61090 27443 ft 287 kts 250°
2026-05-06 06:57 59.97612 4.57425 27985 ft 291 kts 250°
2026-05-06 06:57 59.96864 4.53628 28510 ft 296 kts 249°
2026-05-06 06:58 59.96100 4.49754 28929 ft 303 kts 249°
2026-05-06 06:58 59.95314 4.45785 29362 ft 310 kts 249°
2026-05-06 06:58 59.94511 4.41733 29810 ft 317 kts 249°
2026-05-06 06:58 59.93692 4.37609 30222 ft 323 kts 249°
2026-05-06 06:59 59.92853 4.33396 30604 ft 329 kts 249°
2026-05-06 06:59 59.91999 4.29122 30958 ft 335 kts 249°
2026-05-06 06:59 59.91117 4.24715 31032 ft 349 kts 249°
2026-05-06 06:59 59.90195 4.20117 31041 ft 364 kts 249°
2026-05-06 07:00 59.89237 4.15344 31057 ft 378 kts 249°
2026-05-06 07:00 59.86417 4.06308 31041 ft 395 kts 229°
2026-05-06 07:01 59.81965 3.99681 30983 ft 401 kts 220°
2026-05-06 07:01 59.77374 3.93283 31054 ft 404 kts 220°
2026-05-06 07:02 59.72752 3.86902 31047 ft 405 kts 220°
2026-05-06 07:02 59.68122 3.80548 31045 ft 405 kts 220°
2026-05-06 07:03 59.63486 3.74216 31045 ft 405 kts 220°
2026-05-06 07:03 59.58816 3.67861 31046 ft 405 kts 220°
2026-05-06 07:04 59.54178 3.61570 30989 ft 405 kts 220°
2026-05-06 07:04 59.49500 3.55242 31042 ft 409 kts 219°
2026-05-06 07:05 59.44801 3.48919 31049 ft 409 kts 219°
2026-05-06 07:05 59.40098 3.42611 31057 ft 409 kts 219°
2026-05-06 07:06 59.35392 3.36319 31052 ft 409 kts 219°
2026-05-06 07:06 59.30715 3.30086 31058 ft 409 kts 219°
2026-05-06 07:07 59.26001 3.23818 31015 ft 411 kts 219°
2026-05-06 07:07 59.21240 3.17513 31049 ft 414 kts 219°
2026-05-06 07:08 59.16461 3.11214 31066 ft 415 kts 219°
2026-05-06 07:08 59.11675 3.04926 31064 ft 415 kts 219°
2026-05-06 07:09 59.06895 2.98665 31044 ft 415 kts 219°
2026-05-06 07:09 59.02101 2.92406 31044 ft 415 kts 219°
2026-05-06 07:10 58.97308 2.86159 31038 ft 417 kts 218°
2026-05-06 07:10 58.92396 2.79783 31057 ft 436 kts 218°
2026-05-06 07:11 58.87287 2.73180 31044 ft 443 kts 218°
2026-05-06 07:11 58.82144 2.66568 31042 ft 444 kts 218°
2026-05-06 07:12 58.76993 2.59967 31040 ft 444 kts 218°
2026-05-06 07:12 58.71847 2.53392 31042 ft 444 kts 218°
2026-05-06 07:13 58.66687 2.46826 31053 ft 444 kts 218°
2026-05-06 07:13 58.61537 2.40290 31052 ft 444 kts 218°
2026-05-06 07:14 58.56357 2.33739 31051 ft 444 kts 218°
2026-05-06 07:14 58.51227 2.27276 31053 ft 444 kts 218°
2026-05-06 07:15 58.46039 2.20762 31063 ft 444 kts 218°
2026-05-06 07:15 58.40843 2.14249 31043 ft 449 kts 217°
2026-05-06 07:16 58.35610 2.07731 31055 ft 449 kts 217°
2026-05-06 07:16 58.30371 2.01230 31064 ft 449 kts 217°
2026-05-06 07:17 58.25133 1.94749 31071 ft 449 kts 217°
2026-05-06 07:17 58.19888 1.88283 31073 ft 449 kts 217°
2026-05-06 07:18 58.14633 1.81819 31063 ft 452 kts 216°
2026-05-06 07:18 58.09329 1.75328 31074 ft 454 kts 216°
2026-05-06 07:19 58.04021 1.68856 31075 ft 454 kts 216°
2026-05-06 07:19 57.98692 1.62381 31081 ft 454 kts 216°
2026-05-06 07:20 57.93371 1.55937 31082 ft 454 kts 216°
2026-05-06 07:20 57.88052 1.49514 31069 ft 454 kts 216°
2026-05-06 07:21 57.82728 1.43113 31078 ft 454 kts 216°
2026-05-06 07:21 57.78302 1.37809 31082 ft 454 kts 216°
2026-05-06 07:22 57.72973 1.31443 31079 ft 454 kts 216°
2026-05-06 07:22 57.67637 1.25092 31080 ft 454 kts 216°
2026-05-06 07:23 57.62301 1.18759 31068 ft 455 kts 216°
2026-05-06 07:23 57.56943 1.12425 31081 ft 457 kts 215°
2026-05-06 07:24 57.51570 1.06098 31086 ft 457 kts 215°
2026-05-06 07:24 57.46204 0.99800 31086 ft 457 kts 215°
2026-05-06 07:25 57.40819 0.93502 31086 ft 457 kts 215°
2026-05-06 07:25 57.38167 0.90409 30890 ft 456 kts 215°
2026-05-06 07:25 57.35486 0.87286 30617 ft 453 kts 215°
2026-05-06 07:25 57.32826 0.84194 30377 ft 451 kts 215°
2026-05-06 07:26 57.30176 0.81121 30114 ft 449 kts 215°
2026-05-06 07:26 57.27535 0.78062 29812 ft 447 kts 215°
2026-05-06 07:26 57.24905 0.75022 29522 ft 445 kts 215°
2026-05-06 07:26 57.22286 0.71998 29234 ft 443 kts 215°
2026-05-06 07:27 57.19678 0.68993 28946 ft 441 kts 215°
2026-05-06 07:27 57.17073 0.65996 28658 ft 440 kts 215°
2026-05-06 07:27 57.14482 0.63019 28385 ft 438 kts 215°
2026-05-06 07:27 57.11894 0.60051 28103 ft 436 kts 215°
2026-05-06 07:28 57.09346 0.57135 27752 ft 427 kts 215°
2026-05-06 07:28 57.06851 0.54286 27433 ft 417 kts 215°
2026-05-06 07:28 57.02014 0.48774 26789 ft 401 kts 215°
2026-05-06 07:29 56.99674 0.46113 26468 ft 393 kts 215°
2026-05-06 07:29 56.97372 0.43498 26158 ft 386 kts 215°
2026-05-06 07:29 56.95110 0.40932 25841 ft 379 kts 215°
2026-05-06 07:29 56.92889 0.38416 25542 ft 373 kts 215°
2026-05-06 07:30 56.90685 0.35919 25248 ft 372 kts 215°
2026-05-06 07:30 56.88485 0.33431 25107 ft 371 kts 215°
2026-05-06 07:30 56.86281 0.30942 25103 ft 372 kts 215°
2026-05-06 07:30 56.84078 0.28458 25074 ft 372 kts 215°
2026-05-06 07:31 56.81871 0.25969 25079 ft 374 kts 215°
2026-05-06 07:31 56.79653 0.23476 25086 ft 374 kts 215°
2026-05-06 07:31 56.77453 0.21009 25091 ft 374 kts 215°
2026-05-06 07:31 56.75219 0.18508 25093 ft 374 kts 215°
2026-05-06 07:32 56.72969 0.15992 25052 ft 375 kts 215°
2026-05-06 07:32 56.70782 0.13550 24780 ft 373 kts 215°
2026-05-06 07:32 56.68571 0.11086 24513 ft 371 kts 215°
2026-05-06 07:32 56.66371 0.08637 24246 ft 370 kts 215°
2026-05-06 07:33 56.64176 0.06195 23983 ft 369 kts 215°
2026-05-06 07:33 56.61985 0.03761 23732 ft 368 kts 214°
2026-05-06 07:33 56.59803 0.01341 23431 ft 367 kts 214°
2026-05-06 07:33 56.57627 -0.01070 23106 ft 366 kts 214°
2026-05-06 07:34 56.55447 -0.03486 22767 ft 366 kts 214°
2026-05-06 07:34 56.53272 -0.05891 22471 ft 366 kts 214°
2026-05-06 07:34 56.51093 -0.08294 22167 ft 364 kts 214°
2026-05-06 07:34 56.48932 -0.10674 21867 ft 363 kts 214°
2026-05-06 07:35 56.46762 -0.13060 21566 ft 362 kts 214°
2026-05-06 07:35 56.44613 -0.15421 21273 ft 360 kts 214°
2026-05-06 07:35 56.42470 -0.17772 20983 ft 359 kts 214°
2026-05-06 07:35 56.40338 -0.20108 20701 ft 358 kts 214°
2026-05-06 07:36 56.38211 -0.22435 20421 ft 357 kts 214°
2026-05-06 07:36 56.36088 -0.24756 20120 ft 356 kts 214°
2026-05-06 07:36 56.33974 -0.27063 19840 ft 355 kts 213°
2026-05-06 07:36 56.31864 -0.29364 19580 ft 354 kts 213°
2026-05-06 07:37 56.29747 -0.31668 19292 ft 353 kts 213°
2026-05-06 07:37 56.27642 -0.33958 19021 ft 353 kts 213°
2026-05-06 07:37 56.25546 -0.36233 18754 ft 352 kts 213°
2026-05-06 07:37 56.23452 -0.38503 18488 ft 351 kts 213°
2026-05-06 07:38 56.21364 -0.40764 18198 ft 350 kts 213°
2026-05-06 07:38 56.19284 -0.43014 17890 ft 349 kts 213°
2026-05-06 07:38 56.17212 -0.45252 17585 ft 347 kts 213°
2026-05-06 07:38 56.15142 -0.47484 17288 ft 346 kts 213°
2026-05-06 07:39 56.13083 -0.49704 16997 ft 345 kts 213°
2026-05-06 07:39 56.11016 -0.51927 16701 ft 343 kts 213°
2026-05-06 07:39 56.08955 -0.54142 16300 ft 343 kts 213°
2026-05-06 07:39 56.06935 -0.56311 15820 ft 343 kts 213°
2026-05-06 07:40 56.04905 -0.58488 15453 ft 338 kts 213°
2026-05-06 07:40 56.02895 -0.60640 15099 ft 334 kts 213°
2026-05-06 07:40 56.00910 -0.62762 14746 ft 331 kts 213°
2026-05-06 07:40 55.98950 -0.64854 14399 ft 327 kts 213°
2026-05-06 07:41 55.97009 -0.66925 14054 ft 323 kts 213°
2026-05-06 07:41 55.95083 -0.68975 13688 ft 320 kts 212°
2026-05-06 07:41 55.93176 -0.71006 13306 ft 319 kts 212°
2026-05-06 07:41 55.91266 -0.73040 12922 ft 318 kts 212°
2026-05-06 07:42 55.89370 -0.75053 12534 ft 316 kts 212°
2026-05-06 07:42 55.87483 -0.77054 12180 ft 315 kts 212°
2026-05-06 07:42 55.85604 -0.79051 11807 ft 314 kts 213°
2026-05-06 07:42 55.83729 -0.81038 11435 ft 313 kts 213°
2026-05-06 07:43 55.81861 -0.83013 11132 ft 312 kts 213°
2026-05-06 07:43 55.79993 -0.84984 11101 ft 312 kts 213°
2026-05-06 07:43 55.78121 -0.86958 11093 ft 313 kts 212°
2026-05-06 07:43 55.76247 -0.88936 11094 ft 314 kts 213°
2026-05-06 07:44 55.74367 -0.90916 11094 ft 314 kts 212°
2026-05-06 07:44 55.72484 -0.92890 11088 ft 314 kts 212°
2026-05-06 07:44 55.70600 -0.94867 11089 ft 314 kts 213°
2026-05-06 07:44 55.68717 -0.96849 11091 ft 314 kts 213°
2026-05-06 07:45 55.66835 -0.98826 11091 ft 314 kts 212°
2026-05-06 07:45 55.64953 -1.00795 11075 ft 314 kts 213°
2026-05-06 07:45 55.63036 -1.02796 11093 ft 315 kts 213°